GW2706 Weather Reports


Display with metric or nautical units.
time (UTC)temp
F
wind
direction
speed
MPH
gust
MPH
rain 1hr
in
rain 24hr
in
rain mn
in
humidity
%
barometer
mb
20260510191033 77 247 2.0 5.0 0.00 0.00 0.00 35 1018.4
20260510190531 77 156 0.0 6.0 0.00 0.00 0.00 38 1018.6
20260510190028 76 199 3.0 3.0 0.00 0.00 0.00 39 1018.5
20260510185524 77 133 3.0 5.0 0.00 0.00 0.00 38 1018.6
20260510185022 76 241 2.0 2.0 0.00 0.00 0.00 37 1018.7
20260510184519 77 242 4.0 6.0 0.00 0.00 0.00 38 1018.5
20260510184014 76 154 1.0 5.0 0.00 0.00 0.00 39 1018.6
20260510183510 76 269 2.0 5.0 0.00 0.00 0.00 38 1018.6
20260510183006 76 297 3.0 6.0 0.00 0.00 0.00 39 1018.4
20260510182503 76 178 1.0 9.0 0.00 0.00 0.00 41 1018.5
20260510181957 77 286 2.0 3.0 0.00 0.00 0.00 40 1018.6
20260510181456 76 236 3.0 6.0 0.00 0.00 0.00 37 1018.5
20260510180951 77 150 4.0 9.0 0.00 0.00 0.00 35 1018.5
20260510180449 76 220 5.0 9.0 0.00 0.00 0.00 37 1018.7
20260510175945 75 336 3.0 7.0 0.00 0.00 0.00 40 1018.5
20260510175441 75 289 3.0 7.0 0.00 0.00 0.00 40 1018.4
20260510174937 75 284 5.0 6.0 0.00 0.00 0.00 37 1018.4
20260510174435 75 246 2.0 3.0 0.00 0.00 0.00 44 1018.4
20260510173932 75 257 0.0 5.0 0.00 0.00 0.00 42 1018.2
20260510173427 75 133 2.0 6.0 0.00 0.00 0.00 41 1018.2
20260510172924 75 192 2.0 3.0 0.00 0.00 0.00 42 1018.3
20260510172420 75 205 2.0 5.0 0.00 0.00 0.00 40 1018.3
20260510171916 74 137 2.0 3.0 0.00 0.00 0.00 39 1018.4
20260510171414 74 171 1.0 3.0 0.00 0.00 0.00 40 1018.2
20260510170910 75 232 3.0 5.0 0.00 0.00 0.00 39 1018.2
20260510170407 75 226 2.0 6.0 0.00 0.00 0.00 39 1018.3
20260510165902 75 315 3.0 3.0 0.00 0.00 0.00 42 1018.2
20260510165359 75 208 4.0 7.0 0.00 0.00 0.00 40 1018.3
20260510164856 74 248 2.0 5.0 0.00 0.00 0.00 42 1018.4
20260510164353 74 300 4.0 6.0 0.00 0.00 0.00 44 1018.2
20260510163852 74 24 3.0 6.0 0.00 0.00 0.00 44 1018.3
20260510163349 74 281 6.0 8.0 0.00 0.00 0.00 43 1018.5
20260510162844 74 214 2.0 5.0 0.00 0.00 0.00 45 1018.4
20260510162341 75 119 2.0 3.0 0.00 0.00 0.00 44 1018.5
20260510161836 74 190 0.0 5.0 0.00 0.00 0.00 45 1018.4
20260510161333 74 202 1.0 2.0 0.00 0.00 0.00 49 1018.6
20260510160830 74 316 2.0 5.0 0.00 0.00 0.00 46 1018.5
20260510160327 73 228 2.0 6.0 0.00 0.00 0.00 48 1018.6
20260510155821 73 294 4.0 5.0 0.00 0.00 0.00 48 1018.7
20260510155318 73 171 3.0 5.0 0.00 0.00 0.00 46 1018.5
20260510154813 74 225 5.0 7.0 0.00 0.00 0.00 48 1018.4
20260510154310 73 8 3.0 3.0 0.00 0.00 0.00 48 1018.4
20260510153804 72 143 1.0 3.0 0.00 0.00 0.00 50 1018.2
20260510153300 72 185 2.0 6.0 0.00 0.00 0.00 51 1018.2
20260510152757 72 264 3.0 5.0 0.00 0.00 0.00 54 1018.4
20260510152254 70 183 1.0 2.0 0.00 0.00 0.00 56 1018.1
20260510151750 70 259 2.0 3.0 0.00 0.00 0.00 56 1018.1
20260510151249 69 247 2.0 6.0 0.00 0.00 0.00 54 1018.0
20260510150744 69 206 4.0 5.0 0.00 0.00 0.00 55 1017.9
20260510150240 69 210 2.0 3.0 0.00 0.00 0.00 57 1017.7
20260510145736 69 254 4.0 5.0 0.00 0.00 0.00 58 1017.9
20260510145233 68 17 1.0 5.0 0.00 0.00 0.00 61 1017.8
20260510144723 67 283 1.0 5.0 0.00 0.00 0.00 63 1018.0
20260510144220 68 202 1.0 3.0 0.00 0.00 0.00 64 1017.8
20260510143715 68 116 0.0 5.0 0.00 0.00 0.00 64 1017.6
20260510143212 68 212 3.0 5.0 0.00 0.00 0.00 64 1017.8
20260510142708 67 164 0.0 2.0 0.00 0.00 0.00 69 1017.6
20260510142205 67 292 2.0 2.0 0.00 0.00 0.00 71 1017.5
20260510141702 66 282 2.0 3.0 0.00 0.00 0.00 71 1017.4
20260510141200 66 231 1.0 3.0 0.00 0.00 0.00 73 1017.6
20260510140656 66 266 2.0 3.0 0.00 0.00 0.00 72 1017.0
20260510140156 65 266 1.0 2.0 0.00 0.00 0.00 74 1016.9
20260510135651 65 245 1.0 2.0 0.00 0.00 0.00 74 1017.0
20260510135147 64 204 1.0 2.0 0.00 0.00 0.00 75 1016.8
20260510134644 64 241 2.0 2.0 0.00 0.00 0.00 77 1016.9
20260510134142 63 180 0.0 0.0 0.00 0.00 0.00 79 1016.9
20260510133638 63 235 1.0 3.0 0.00 0.00 0.00 80 1016.9
20260510133133 62 298 2.0 2.0 0.00 0.00 0.00 82 1016.9
20260510132630 62 239 2.0 2.0 0.00 0.00 0.00 84 1016.4
20260510132127 61 195 1.0 2.0 0.00 0.00 0.00 86 1016.5
20260510131624 60 163 1.0 1.0 0.00 0.00 0.00 86 1016.4
20260510131122 60 266 2.0 2.0 0.00 0.00 0.00 87 1016.3
20260510130618 60 231 1.0 1.0 0.00 0.00 0.00 89 1016.3
20260510130116 60 191 0.0 0.0 0.00 0.00 0.00 90 1016.4
20260510125612 59 169 0.0 1.0 0.00 0.00 0.00 90 1016.6
20260510125108 59 210 0.0 0.0 0.00 0.00 0.00 90 1016.5
20260510124605 58 304 2.0 2.0 0.00 0.00 0.00 90 1016.4
20260510124102 58 287 1.0 2.0 0.00 0.00 0.00 90 1016.3
20260510123556 58 307 2.0 3.0 0.00 0.00 0.00 90 1016.2
20260510123053 58 217 0.0 1.0 0.00 0.00 0.00 90 1016.0
20260510122549 57 231 1.0 1.0 0.00 0.00 0.00 91 1016.0
20260510122045 57 301 2.0 3.0 0.00 0.00 0.00 91 1015.6
20260510121543 57 192 0.0 0.0 0.00 0.00 0.00 91 1015.8
20260510121040 57 141 0.0 1.0 0.00 0.00 0.00 91 1015.8
20260510120538 57 294 2.0 2.0 0.00 0.00 0.00 91 1015.8
20260510120033 57 246 0.0 0.0 0.00 0.00 0.00 91 1015.5
20260510115530 57 249 0.0 0.0 0.00 0.00 0.00 90 1015.5
20260510115027 57 161 1.0 2.0 0.00 0.00 0.00 90 1015.6
20260510114522 57 181 0.0 0.0 0.00 0.00 0.00 91 1015.5
20260510114019 57 171 0.0 1.0 0.00 0.00 0.00 91 1015.3
20260510113514 57 243 1.0 1.0 0.00 0.00 0.00 90 1015.3
20260510113012 57 205 1.0 1.0 0.00 0.00 0.00 89 1015.1
20260510112509 57 151 0.0 1.0 0.00 0.00 0.00 89 1014.9
20260510112005 57 182 0.0 0.0 0.00 0.00 0.00 88 1015.0
20260510111501 57 336 0.0 0.0 0.00 0.00 0.00 89 1014.7
20260510110957 57 137 0.0 0.0 0.00 0.00 0.00 90 1014.6
20260510110454 56 128 0.0 0.0 0.00 0.00 0.00 91 1014.5
20260510105949 56 140 0.0 0.0 0.00 0.00 0.00 91 1014.7
20260510105445 56 153 0.0 0.0 0.00 0.00 0.00 91 1014.6
20260510104940 56 170 0.0 0.0 0.00 0.00 0.00 91 1014.5
20260510104437 57 298 1.0 3.0 0.00 0.00 0.00 90 1014.5
20260510103934 57 255 2.0 2.0 0.00 0.00 0.00 90 1014.6
20260510103431 57 135 0.0 0.0 0.00 0.00 0.00 90 1014.3
20260510102926 57 169 0.0 0.0 0.00 0.00 0.00 90 1013.9
20260510102422 57 195 0.0 0.0 0.00 0.00 0.00 89 1013.9
20260510101919 58 191 0.0 0.0 0.00 0.00 0.00 89 1014.1
20260510101418 58 215 0.0 0.0 0.00 0.00 0.00 89 1014.0
20260510100915 58 137 0.0 0.0 0.00 0.00 0.00 89 1013.9
20260510100412 58 129 0.0 0.0 0.00 0.00 0.00 89 1013.8
20260510095907 58 131 0.0 0.0 0.00 0.00 0.00 89 1013.8
20260510095402 58 110 0.0 0.0 0.00 0.00 0.00 89 1013.6
20260510094856 58 107 0.0 0.0 0.00 0.00 0.00 88 1013.6
20260510094352 58 125 0.0 0.0 0.00 0.00 0.00 88 1013.5
20260510093848 59 133 0.0 1.0 0.00 0.00 0.00 88 1013.6
20260510093344 59 145 0.0 0.0 0.00 0.00 0.00 87 1013.5
20260510092840 59 95 0.0 1.0 0.00 0.00 0.00 87 1013.5
20260510092337 59 105 0.0 0.0 0.00 0.00 0.00 87 1013.7
20260510091832 59 121 0.0 0.0 0.00 0.00 0.00 87 1013.6
20260510091330 58 123 0.0 0.0 0.00 0.00 0.00 87 1013.8
20260510090826 58 130 0.0 0.0 0.00 0.00 0.00 85 1013.8
20260510090323 58 128 0.0 0.0 0.00 0.00 0.00 85 1013.8
20260510085818 58 131 0.0 0.0 0.00 0.00 0.00 85 1013.9
20260510085313 58 131 0.0 0.0 0.00 0.00 0.00 84 1013.9
20260510084809 58 131 0.0 0.0 0.00 0.00 0.00 84 1014.0
20260510084306 57 132 0.0 0.0 0.00 0.00 0.00 83 1013.9
20260510083803 57 132 0.0 0.0 0.00 0.00 0.00 83 1013.9
20260510083300 57 132 0.0 0.0 0.00 0.00 0.00 83 1013.8
20260510082755 57 131 0.0 0.0 0.00 0.00 0.00 83 1013.7
20260510082252 57 133 0.0 0.0 0.00 0.00 0.00 83 1013.6
20260510081750 57 137 0.0 0.0 0.00 0.00 0.00 84 1013.5
20260510081247 57 133 0.0 0.0 0.00 0.00 0.00 85 1013.7
20260510080743 57 151 0.0 0.0 0.00 0.00 0.00 86 1013.4
20260510080238 57 217 0.0 0.0 0.00 0.00 0.00 86 1013.4
20260510075735 57 135 0.0 0.0 0.00 0.00 0.00 86 1013.5
20260510075233 58 134 0.0 0.0 0.00 0.00 0.00 86 1013.4
20260510074730 58 139 0.0 0.0 0.00 0.00 0.00 87 1013.3
20260510074226 58 123 0.0 0.0 0.00 0.00 0.00 88 1013.4
20260510073722 58 154 0.0 0.0 0.00 0.00 0.00 87 1013.5
20260510073218 58 186 0.0 0.0 0.00 0.00 0.00 87 1013.5
20260510072714 58 138 0.0 0.0 0.00 0.00 0.00 87 1013.6
20260510072211 58 170 0.0 0.0 0.00 0.00 0.00 87 1013.3
20260510071708 58 190 0.0 1.0 0.00 0.00 0.00 87 1013.3
20260510071205 58 310 1.0 2.0 0.00 0.00 0.00 87 1013.3
20260510070702 58 141 0.0 2.0 0.00 0.00 0.00 88 1013.3
20260510070159 58 282 1.0 2.0 0.00 0.00 0.00 88 1013.3
20260510065654 58 216 0.0 5.0 0.00 0.00 0.00 89 1013.6
20260510065151 57 16 0.0 2.0 0.00 0.00 0.00 91 1013.6
20260510064648 57 339 0.0 0.0 0.00 0.00 0.00 91 1013.0
20260510064144 57 245 0.0 0.0 0.00 0.00 0.00 90 1012.9
20260510063642 57 179 0.0 0.0 0.00 0.00 0.00 90 1013.0
20260510063138 57 144 0.0 0.0 0.00 0.00 0.00 90 1013.0
20260510062634 57 183 0.0 0.0 0.00 0.00 0.00 90 1012.8
20260510062130 58 165 0.0 0.0 0.00 0.00 0.00 90 1012.7
20260510061626 58 140 0.0 0.0 0.00 0.00 0.00 90 1012.7
20260510061124 58 146 0.0 0.0 0.00 0.00 0.00 90 1012.8
20260510060620 58 150 0.0 0.0 0.00 0.00 0.00 90 1012.5
20260510060116 58 182 0.0 0.0 0.00 0.00 0.00 90 1012.8
20260510055612 58 148 0.0 0.0 0.00 0.00 0.00 90 1012.8
20260510055110 58 146 0.0 0.0 0.00 0.00 0.00 89 1013.0
20260510054606 58 147 0.0 0.0 0.00 0.00 0.00 89 1013.1
20260510054101 59 151 0.0 0.0 0.00 0.00 0.00 89 1012.9
20260510053601 59 152 0.0 0.0 0.00 0.00 0.00 89 1012.9
20260510053058 59 152 0.0 0.0 0.00 0.00 0.00 88 1012.7
20260510052554 59 140 0.0 0.0 0.00 0.00 0.00 88 1012.8
20260510052050 59 139 0.0 0.0 0.00 0.00 0.00 87 1012.7
20260510051546 60 154 0.0 0.0 0.00 0.00 0.00 87 1012.7
20260510051043 60 154 0.0 0.0 0.00 0.00 0.00 86 1012.7
20260510050540 60 163 0.0 0.0 0.00 0.00 0.00 85 1012.5
20260510050037 60 135 0.0 0.0 0.00 0.00 0.00 85 1012.6
20260510045534 60 117 0.0 0.0 0.00 0.00 0.00 84 1012.6
20260510045030 61 138 0.0 0.0 0.00 0.00 0.00 83 1012.5
20260510044527 61 192 0.0 0.0 0.00 0.00 0.00 82 1012.4
20260510044025 62 130 0.0 0.0 0.00 0.00 0.00 83 1012.5
20260510043520 62 128 0.0 0.0 0.00 0.00 0.00 85 1012.6
20260510043015 62 163 0.0 0.0 0.00 0.00 0.00 84 1012.6
20260510042510 62 167 0.0 0.0 0.00 0.00 0.00 83 1012.5
20260510042005 62 150 0.0 0.0 0.00 0.00 0.00 83 1012.4
20260510041503 63 150 0.0 0.0 0.00 0.00 0.00 82 1012.4
20260510041000 63 143 0.0 0.0 0.00 0.00 0.00 81 1012.4
20260510040456 63 144 0.0 0.0 0.00 0.00 0.00 81 1012.4
20260510035952 63 131 0.0 0.0 0.00 0.00 0.00 81 1012.5
20260510035449 63 158 0.0 0.0 0.00 0.00 0.00 81 1012.4
20260510034948 64 137 0.0 0.0 0.00 0.00 0.00 81 1012.3
20260510034447 64 139 0.0 0.0 0.00 0.00 0.00 80 1012.4
20260510033943 64 143 1.0 2.0 0.00 0.00 0.00 78 1012.3
20260510033439 65 161 0.0 0.0 0.00 0.00 0.00 76 1012.2
20260510032937 65 162 0.0 0.0 0.00 0.00 0.00 75 1012.2
20260510032433 65 145 0.0 0.0 0.00 0.00 0.00 73 1012.3
20260510031928 66 131 0.0 1.0 0.00 0.00 0.00 72 1012.1
20260510031424 66 89 1.0 2.0 0.00 0.00 0.00 69 1012.1
20260510030919 66 135 0.0 0.0 0.00 0.00 0.00 73 1012.0
20260510030415 67 139 0.0 0.0 0.00 0.00 0.00 72 1012.0
20260510025913 67 144 0.0 1.0 0.00 0.00 0.00 73 1012.0
20260510025410 67 114 0.0 1.0 0.00 0.00 0.00 64 1011.8
20260510024908 66 115 0.0 1.0 0.00 0.00 0.00 66 1011.8
20260510024404 66 117 0.0 0.0 0.00 0.00 0.00 77 1011.7
20260510023900 66 148 0.0 0.0 0.00 0.00 0.00 76 1011.6
20260510023356 67 139 0.0 0.0 0.00 0.00 0.00 75 1011.6
20260510022854 67 148 0.0 0.0 0.00 0.00 0.00 76 1011.5
20260510022353 66 134 0.0 0.0 0.00 0.00 0.00 77 1011.6
20260510021852 67 117 0.0 0.0 0.00 0.00 0.00 77 1011.4
20260510021350 67 165 0.0 0.0 0.00 0.00 0.00 76 1011.2
20260510020846 67 139 0.0 0.0 0.00 0.00 0.00 75 1011.2
20260510020346 67 134 0.0 0.0 0.00 0.00 0.00 75 1011.2
20260510015842 67 131 0.0 0.0 0.00 0.00 0.00 75 1011.2
20260510015338 68 135 0.0 0.0 0.00 0.00 0.00 74 1011.0
20260510014833 68 135 0.0 0.0 0.00 0.00 0.00 74 1011.0
20260510014331 68 135 0.0 0.0 0.00 0.00 0.00 73 1010.9
20260510013827 68 129 0.0 0.0 0.00 0.00 0.00 72 1011.0
20260510013323 68 116 0.0 0.0 0.00 0.00 0.00 72 1010.8
20260510012818 69 105 0.0 0.0 0.00 0.00 0.00 71 1010.8
20260510012317 69 133 0.0 0.0 0.00 0.00 0.00 71 1010.8
20260510011813 69 125 0.0 0.0 0.00 0.00 0.00 70 1010.7
20260510011308 70 136 0.0 0.0 0.00 0.00 0.00 69 1010.7
20260510010805 70 176 0.0 1.0 0.00 0.00 0.00 68 1010.5
20260510010302 70 124 0.0 2.0 0.00 0.00 0.00 68 1010.7
20260510005759 71 126 0.0 0.0 0.00 0.00 0.00 65 1010.4
20260510005255 71 127 0.0 0.0 0.00 0.00 0.00 65 1010.5
20260510004753 72 127 0.0 0.0 0.00 0.00 0.00 63 1010.2
20260510004250 72 135 0.0 0.0 0.00 0.00 0.00 62 1010.3
20260510003748 73 119 0.0 0.0 0.00 0.00 0.00 61 1010.1
20260510003244 73 116 0.0 0.0 0.00 0.00 0.00 58 1010.1
20260510002743 74 127 0.0 0.0 0.00 0.00 0.00 56 1010.1
20260510002241 76 137 0.0 0.0 0.00 0.00 0.00 55 1010.0
20260510001737 77 124 0.0 0.0 0.00 0.00 0.00 51 1010.0
20260510001236 79 130 0.0 0.0 0.00 0.00 0.00 47 1010.0
20260510000731 79 158 0.0 0.0 0.00 0.00 0.00 46 1010.0
20260510000229 79 218 0.0 0.0 0.00 0.00 0.00 48 1010.0
20260509235725 80 153 0.0 0.0 0.00 0.00 0.00 45 1010.1
20260509235222 81 137 0.0 0.0 0.00 0.00 0.00 43 1010.0
20260509234718 81 189 0.0 0.0 0.00 0.00 0.00 41 1010.0
20260509234215 81 168 0.0 0.0 0.00 0.00 0.00 41 1010.0
20260509233713 81 148 0.0 0.0 0.00 0.00 0.00 42 1009.9
20260509233205 80 155 0.0 0.0 0.00 0.00 0.00 39 1010.1
20260509232701 81 131 0.0 0.0 0.00 0.00 0.00 44 1009.8
20260509232158 81 183 0.0 0.0 0.00 0.00 0.00 44 1009.9
20260509231655 81 169 0.0 2.0 0.00 0.00 0.00 45 1009.8
20260509231152 80 146 0.0 0.0 0.00 0.00 0.00 42 1010.1
20260509230649 80 182 0.0 0.0 0.00 0.00 0.00 42 1009.9
20260509230146 81 245 0.0 1.0 0.00 0.00 0.00 42 1009.9
20260509225641 82 181 2.0 5.0 0.00 0.00 0.00 32 1010.0
20260509225137 82 177 1.0 2.0 0.00 0.00 0.00 31 1009.9
20260509224633 83 176 2.0 6.0 0.00 0.00 0.00 31 1009.5
20260509224130 83 243 3.0 3.0 0.00 0.00 0.00 36 1009.7
20260509223627 84 351 2.0 3.0 0.00 0.00 0.00 29 1009.6
20260509223124 83 304 5.0 6.0 0.00 0.00 0.00 33 1009.6
20260509222621 82 244 2.0 3.0 0.00 0.00 0.00 31 1009.7
20260509222116 82 289 1.0 5.0 0.00 0.00 0.00 41 1009.9
20260509221612 82 131 1.0 2.0 0.00 0.00 0.00 44 1009.7
20260509221109 82 129 0.0 0.0 0.00 0.00 0.00 43 1009.8
20260509220604 82 285 2.0 2.0 0.00 0.00 0.00 40 1009.8
20260509215556 82 230 2.0 2.0 0.00 0.00 0.00 35 1009.6
20260509215054 82 251 2.0 3.0 0.00 0.00 0.00 35 1009.7
20260509214551 82 32 1.0 2.0 0.00 0.00 0.00 34 1009.8
20260509214048 83 260 5.0 7.0 0.00 0.00 0.00 32 1009.7
20260509213544 83 188 1.0 6.0 0.00 0.00 0.00 31 1009.8
20260509213041 83 268 4.0 6.0 0.00 0.00 0.00 32 1009.8
20260509212538 83 177 1.0 7.0 0.00 0.00 0.00 34 1009.7
20260509212035 83 291 6.0 7.0 0.00 0.00 0.00 31 1009.9
20260509211530 83 266 3.0 6.0 0.00 0.00 0.00 32 1009.8
20260509211027 84 329 3.0 6.0 0.00 0.00 0.00 34 1010.0
20260509210524 83 226 1.0 2.0 0.00 0.00 0.00 34 1009.8
20260509210020 83 312 5.0 9.0 0.00 0.00 0.00 33 1009.9
20260509205515 83 249 2.0 3.0 0.00 0.00 0.00 36 1009.8
20260509205010 83 201 1.0 5.0 0.00 0.00 0.00 31 1009.8
20260509204507 83 253 2.0 7.0 0.00 0.00 0.00 34 1010.0
20260509204003 83 344 2.0 10.0 0.00 0.00 0.00 34 1010.0
20260509203459 83 196 4.0 6.0 0.00 0.00 0.00 34 1009.9
20260509202957 82 229 7.0 8.0 0.00 0.00 0.00 34 1009.8
20260509202453 82 205 5.0 6.0 0.00 0.00 0.00 33 1010.0
20260509201948 82 187 3.0 3.0 0.00 0.00 0.00 36 1009.9
20260509201443 81 291 4.0 10.0 0.00 0.00 0.00 35 1010.2
20260509200940 82 230 8.0 10.0 0.00 0.00 0.00 38 1010.3
20260509200440 82 204 3.0 5.0 0.00 0.00 0.00 37 1010.3
20260509195937 82 340 3.0 9.0 0.00 0.00 0.00 36 1010.3
20260509195433 82 289 5.0 9.0 0.00 0.00 0.00 34 1010.3
20260509194932 82 165 3.0 5.0 0.00 0.00 0.00 38 1010.3
20260509194428 82 230 7.0 9.0 0.00 0.00 0.00 38 1010.2
20260509193926 82 156 3.0 9.0 0.00 0.00 0.00 37 1010.3
20260509193425 81 64 2.0 8.0 0.00 0.00 0.00 37 1010.6
20260509192921 82 251 6.0 11.0 0.00 0.00 0.00 37 1010.8
20260509192418 82 125 2.0 3.0 0.00 0.00 0.00 39 1010.6
20260509191913 82 180 1.0 2.0 0.00 0.00 0.00 38 1010.6
20260509191409 83 308 5.0 9.0 0.00 0.00 0.00 38 1010.5